www.pogodaiklimat.ru

Погода и климат >> Архив погоды >> Россия >> Якутия >> Себян-Кюель


ПОГОДА в Себян-Кюеле

  • Прогноз погоды в Себян-Кюеле
  • Монитор погоды в Себян-Кюеле
  • Климат города

АРХИВ ПОГОДЫ в Себян-Кюеле

Время (UTC), дата Ветер
(напр.,м/с)
 
Видим.   Явления Облачность Т
(С)
Тd
(С)
f
(%)
Тe
(С)
Тes
(С)
Комфортность P
(гПа)
Po
(гПа)
Тmin
(С)
Tmax
(С)
R
(мм)
R24
(мм)
S
(см)
09 10.12 З 2 50 км ясно -33.7 -35.3 85 -42 -42 опасность
обморожения
1032.6 925.1
12 10.12 З 2 50 км ясно -35.0 -36.8 84 -43 -43 опасность
обморожения
1033.1 925.0 -31.8
15 10.12 З 1 50 км ясно -36.3 -37.8 86 -41 -41 опасность
обморожения
1032.8 924.2
18 10.12 З 2 50 км ясно -36.1 -37.8 84 -45 -45 опасность
обморожения
1032.3 923.8
21 10.12 З 2 50 км ясно -36.7 -38.2 86 -45 -45 опасность
обморожения
1032.0 923.3
00 11.12 З 2 50 км ясно -35.8 -37.5 84 -44 -44 опасность
обморожения
1030.6 922.6 -37.8 23
03 11.12 З 2 50 км 4/0
[Cs]
-35.4 -37.1 84 -44 -44 опасность
обморожения
1029.9 922.1
06 11.12 З 2 50 км 4/0
[Cs]
-36.5 -38.2 84 -45 -45 опасность
обморожения
1029.4 921.1
09 11.12 З 2 50 км ясно -37.5 -39.3 83 -46 -46 опасность
обморожения
1029.8 921.1
12 11.12 З 2 50 км ясно -37.0 -38.5 86 -46 -46 опасность
обморожения
1028.8 920.5 -33.9
15 11.12 З 2 50 км ясно -37.8 -39.3 86 -47 -47 опасность
обморожения
1028.8 920.1
18 11.12 З 2 50 км ясно -35.8 -37.5 84 -44 -44 опасность
обморожения
1027.0 919.4
21 11.12 З 2 50 км ясно -34.2 -35.9 84 -42 -42 опасность
обморожения
1025.7 918.9
00 12.12 З 1 50 км 6/0
[Ac As Ci sp]
-31.9 -33.7 84 -36 -36 опасность
обморожения
1024.5 918.8 -38.4 23
03 12.12 штиль 0 50 км 8/0
[Ac As Cc]
-28.5 -30.4 84 -29 -29 1022.3 918.2
06 12.12 ЮЗ 2 50 км 10/0 2000 м
[Ac As]
-22.7 -24.6 84 -29 -29 1020.2 918.5
09 12.12 ЮЗ 3 50 км 8/0
[Ac As]
-22.8 -24.7 84 -31 -31 опасность
обморожения
1020.1 918.4
12 12.12 Ю 3 50 км 10/0 2000 м
[As op]
-23.4 -25.3 84 -32 -32 опасность
обморожения
1020.9 918.9 -22.1
15 12.12 Ю 3 4000 м слабый снег 10/0
[As op]
-22.8 -24.7 84 -31 -31 опасность
обморожения
1019.9 918.2
18 12.12 З 1 50 км {снег} 5/0 2000 м
[As op]
-31.6 -33.3 85 -36 -36 опасность
обморожения
1024.4 918.8
21 12.12 З 1 50 км 5/0
[As op]
-30.8 -32.6 84 -35 -35 опасность
обморожения
1024.7 919.4
00 13.12 З 2 50 км 6/0 2000 м
[As trans]
-35.0 -36.8 84 -43 -43 опасность
обморожения
1026.8 919.5 -35.9 0.4 23
03 13.12 З 2 50 км 8/0 2000 м
[Ac As Ci fib]
-34.8 -37.1 79 -43 -43 опасность
обморожения
1025.3 918.3
06 13.12 З 3 50 км 8/0 2000 м
[Ac trans]
-34.3 -35.9 85 -45 -45 опасность
обморожения
1024.1 917.4
09 13.12 З 3 50 км ясно -36.2 -37.8 85 -47 -47 опасность
обморожения
1024.2 916.7
12 13.12 З 3 50 км ясно -39.4 -41.1 84 -51 -51 опасность
обморожения
1024.7 915.8 -30.8
15 13.12 З 3 50 км ясно -40.8 -42.6 83 -53 -53 опасность
обморожения
1024.7 915.1
18 13.12 З 3 50 км ясно -37.8 -39.3 86 -49 -49 опасность
обморожения
1021.4 913.4
21 13.12 З 3 50 км 4/0
[Ac trans]
-36.6 -38.2 85 -48 -48 опасность
обморожения
1019.5 912.3
00 14.12 З 2 50 км 10/0 2000 м
[Ac und]
-28.2 -30.0 84 -35 -35 опасность
обморожения
1013.1 910.0 -41.4 23
03 14.12 Ю 4 50 км 8/0
[Ac As]
-25.4 -27.8 80 -36 -36 опасность
обморожения
1010.5 908.8
06 14.12 ЮЗ 2 50 км 8/0 2000 м
[As op]
-24.5 -27.0 80 -31 -31 опасность
обморожения
1009.8 908.4
09 14.12 З 1 50 км 6/0
[As op]
-28.1 -30.5 80 -32 -32 опасность
обморожения
1011.0 908.1
12 14.12 В 1 50 км 6/0 2000 м
[As op]
-24.4 -26.9 80 -28 -28 1008.9 907.7 -23.8
15 14.12 ЮЗ 3 50 км 6/0
[As op]
-22.2 -24.8 79 -30 -30 1007.3 907.1
18 14.12 Ю 4 50 км 8/0 2000 м
[As op]
-23.1 -25.7 79 -33 -33 опасность
обморожения
1007.1 906.6
21 14.12 ЮЗ 3 50 км 8/0 2000 м
[As op]
-22.4 -24.9 80 -30 -30 1006.6 906.4
00 15.12 ЮЗ 3 50 км 10/0
[As op]
-22.5 -25.0 80 -31 -31 опасность
обморожения
1006.7 906.5 -24.7 23
03 15.12 ЮЗ 1 50 км 8/0
[Ac und]
-22.3 -26.4 69 -26 -26 1006.3 906.0
06 15.12 штиль 0 50 км 10/0 2000 м
[Ac und]
-24.7 -28.6 70 -25 -25 1007.0 905.7
09 15.12 В 1 50 км 10/0 2000 м
[Ac und]
-22.0 -26.1 69 -25 -25 1005.6 905.7
12 15.12 Ю 1 50 км 8/0 2000 м
[Ac und]
-21.9 -26.0 69 -25 -25 1005.6 905.7 -21.5
15 15.12 З 1 50 км 5/0 2000 м
[As op]
-27.2 -29.6 80 -31 -31 опасность
обморожения
1007.4 905.3
18 15.12 З 1 50 км 4/0 2000 м
[As op]
-27.8 -30.3 79 -32 -32 опасность
обморожения
1007.1 904.8
21 15.12 З 1 50 км 4/0
[As op]
-28.4 -30.2 84 -32 -32 опасность
обморожения
1006.9 904.4
00 16.12 З 1 50 км 5/0 2000 м
[Ac As Ci sp]
-30.6 -32.4 84 -35 -35 опасность
обморожения
1007.7 904.2 -32.4 23
03 16.12 З 2 50 км 10/0
[Ac und]
-29.5 -33.3 69 -37 -37 опасность
обморожения
1007.4 904.2
06 16.12 З 1 50 км 8/0
[Ac trans Ci fib]
-31.2 -33.0 84 -35 -35 опасность
обморожения
1008.1 904.2
09 16.12 СЗ 1 50 км 8/0
[Ci fib]
-31.1 -32.8 85 -35 -35 опасность
обморожения
1008.4 904.5
12 16.12 З 1 50 км 10/0
[Cs]
-29.4 -31.1 85 -33 -33 опасность
обморожения
1007.6 904.4 -27.6
15 16.12 З 1 50 км 10/0
[Cs]
-28.8 -30.6 84 -33 -33 опасность
обморожения
1007.5 904.6
18 16.12 ЮЗ 1 50 км 10/0
[Cs]
-27.8 -29.7 84 -32 -32 опасность
обморожения
1006.4 904.0
21 16.12 З 1 50 км 10/0
[Cs]
-27.4 -29.2 85 -31 -31 опасность
обморожения
1006.0 903.8
00 17.12 З 2 50 км 6/0 2000 м
[Ac trans]
-33.1 -35.4 80 -41 -41 опасность
обморожения
1009.2 904.4 -34.5 23
03 17.12 З 1 50 км 8/0
[Ac trans]
-31.6 -35.2 70 -36 -36 опасность
обморожения
1008.7 904.5
06 17.12 ЮЗ 2 50 км 4/0 2000 м
[Ac trans]
-34.6 -38.1 70 -43 -43 опасность
обморожения
1010.6 905.0

 

Местоположение метеостанции Себян-Кюель (Якутия, Россия): широта 65.30 долгота 130.00 высота над уровнем моря 777 м.

В архиве по умолчанию представлена погода в Себян-Кюеле за последнюю неделю. Архивные данные за месяц целиком и за предыдущие месяцы, начиная с января 2011 года, Вы можете получить, выбрав интересующий диапазон дат из раскрывающегося списка и нажав кнопку "Ввод!".


*Определитесь, кто Вы:
робот инопланетянин человек

Внимание! Время в таблицах - всемирное. Для получения местного времени необходимо прибавить поправку, которая в Себян-Кюеле равна 9 ч.

Смотрите также архив погоды в соседних городах и на ближайших метеорологических станциях:

Погода в Сеген-Кюели (Якутия, Россия) (145 км)
Погода в Екюччю (Якутия, Россия) (179 км)
Погода в Сангаре (Якутия, Россия) (195 км)
Погода в Батамае (Якутия, Россия) (200 км)
Погода в Сого-Хае (Якутия, Россия) (205 км)
Погода в Верхоянском Перевозе (Якутия, Россия) (240 км)
Погода в Иэме (Якутия, Россия) (269 км)
Погода в Бестяхской Звероферме (Якутия, Россия) (274 км)
Погода в Батагай-Алыте (Якутия, Россия) (276 км)
Погода в Намцах (Якутия, Россия) (288 км)

Пояснения к столбцам:

Ветер - указаны скорость ветра в м/с - средняя за 10 мин, порывы в срок и между сроками (в фигурных скобках) и направление, откуда дует ветер: С - северный, СВ - северо-восточный, В - восточный, ЮВ - юго-восточный, Ю - южный, ЮЗ - юго-западный, З - западный, СЗ - северо-западный.
Видимость - горизонтальная дальность видимости в метрах или километрах. При видимости от 1 до 10 км при отсутствии осадков обычно наблюдается дымка, при ухудшении видимости до 1 км и менее - туман. В сухую погоду видимость может ухудшаться дымом, пылью или мглою.
Явления - указаны атмосферные явления, наблюдавшиеся в срок или в последний час перед сроком; фигурными скобками обозначены явления, наблюдавшиеся между сроками (за 1-3 часа до срока); квадратными скобками обозначены град или гололедные отложения с указанием их диаметра в мм.
Облачность - указаны через наклонную черту общая и нижняя облачность в баллах и высота нижней границы облаков в метрах; квадратными скобками обозначены формы облаков: Ci - перистые, Cs - перисто-слоистые, Cc - перисто-кучевые, Ac - высококучевые, As - высокослоистые, Sc - слоисто-кучевые, Ns - слоисто-дождевые, Cu - кучевые, Cb - кучево-дождевые. Подробнее классификацию облаков см. в Атласе облаков (PDF).
T - Температура воздуха - температура, измеренная на высоте 2 м над землей.
Td - Температура точки росы - температура, при понижении до которой содержащийся в воздухе водяной пар достигнет насыщения.
f - Относительная влажность воздуха - влажноcть воздуха, измеренная на высоте 2 м над землей.
Te - Эффективная температура - температура, которую ощущает одетый по сезону человек в тени. Характеристика душности погоды. При расчете учитывается влияние влажности воздуха и скорости ветра на теплоощущения человека.
Tes - Эффективная температура на солнце - температура, которую ощущает человек, с поправкой на солнечный нагрев. Характеристика знойности погоды. Зависит от высоты солнца над горизонтом, облачности и скорости ветра. Ночью, в пасмурную погоду, а также при ветре 12 м/с и более поправка равна нулю.
P - Атмосферное давление - приведенное к уровню моря атмосферное давление.
Po - Атмосферное давление - измеренное на уровне метеостанции атмосферное давление.
Tmin - Минимальная температура - минимум температуры воздуха на высоте 2 м над землей.
Tmax - Максимальная температура - максимум температуры воздуха на высоте 2 м над землей.
R - Количество осадков - Количество выпавших осадков за период времени, мм. При наведении курсора мыши на число - период времени, за который выпало указанное количество осадков.
R24 - Количество осадков - Количество выпавших осадков за 24 часа, мм.
S - Снежный покров - Высота снежного покрова, см. При наведении курсора мыши на число - состояние снежного покрова и степень покрытия местности в баллах.